This is the latest recevied weather packets stored in our database for station/object KC1TEM-13. If no packets are shown the sender has not sent any weather packets the latest 10 day(s).
| Time | Temp. | Humidity | Pressure | Rain* | Wind** | Luminosity | Snow |
|---|---|---|---|---|---|---|---|
| 1787916778 | 20° C | 98% | 1016.3 hPa | 0 mm | - | 54 W/m² | - |
| 1787916477 | 19.44° C | 97% | 1016.3 hPa | 0 mm | - | 54 W/m² | - |
| 1787916173 | 19.44° C | 97% | 1016.1 hPa | 0 mm | - | 60 W/m² | - |
| 1787915868 | 19.44° C | 97% | 1016.2 hPa | 0 mm | - | 56 W/m² | - |
| 1787915563 | 18.89° C | 97% | 1016 hPa | 0 mm | - | 49 W/m² | - |
| 1787915262 | 18.89° C | 97% | 1016 hPa | 0 mm | - | 53 W/m² | - |
| 1787914957 | 18.89° C | 97% | 1016.1 hPa | 0 mm | - | 57 W/m² | - |
| 1787914656 | 18.89° C | 98% | 1015.8 hPa | 0 mm | - | 48 W/m² | - |
| 1787914352 | 18.33° C | 98% | 1015.8 hPa | 0 mm | - | 36 W/m² | - |
| 1787914052 | 18.33° C | 97% | 1015.9 hPa | 0 mm | - | 28 W/m² | - |
| 1787913751 | 18.33° C | 98% | 1015.9 hPa | 0 mm | - | 23 W/m² | - |
| 1787913446 | 18.33° C | 98% | 1015.6 hPa | 0 mm | - | 17 W/m² | - |
| 1787913146 | 18.33° C | 98% | 1015.9 hPa | 0 mm | - | 17 W/m² | - |
| 1787912845 | 18.33° C | 98% | 1015.8 hPa | 0 mm | - | 15 W/m² | - |
| 1787912539 | 18.33° C | 98% | 1015.7 hPa | 0 mm | - | 12 W/m² | - |
| 1787912238 | 18.33° C | 98% | 1015.8 hPa | 0 mm | - | 8 W/m² | - |
| 1787911933 | 17.78° C | 98% | 1015.8 hPa | 0 mm | - | 5 W/m² | - |
| 1787911629 | 17.78° C | 98% | 1015.6 hPa | 0 mm | - | 3 W/m² | - |
| 1787911328 | 17.78° C | 98% | 1015.4 hPa | 0 mm | - | 2 W/m² | - |
| 1787911024 | 17.78° C | 98% | 1015.5 hPa | 0 mm | - | 1 W/m² | - |
| 1787910721 | 17.78° C | 98% | 1015.4 hPa | 0 mm | - | 0 W/m² | - |
| 1787910420 | 17.78° C | 98% | 1015.3 hPa | 0 mm | - | 0 W/m² | - |
| 1787910116 | 17.78° C | 98% | 1015.5 hPa | 0 mm | - | 0 W/m² | - |
| 1787909813 | 17.78° C | 98% | 1015.4 hPa | 0 mm | - | 0 W/m² | - |
| 1787909512 | 17.78° C | 98% | 1015.4 hPa | 0 mm | - | 0 W/m² | - |
* Rain latest hour (hover to see other rain measurements)
** Current wind speed in m/s (hover to see current wind gust speed)